Regional Weather Roundup
Issued by NWS Kansas City/Pleasant Hill, MO

Home | Current Version | Previous Version | Graphics & Text | Print | Product List | Glossary Off
Versions: 1 2 3 4 5 6 7 8 9 10 11 12 13 14 15 16 17 18 19 20 21 22 23 24 25 26 27 28 29 30 31 32 33 34 35 36 37 38 39 40 41 42 43 44 45 46 47 48 49 50

000
ASUS43 KEAX 032104
RWREAX

WEATHER ROUNDUP FOR EASTERN KANSAS AND NORTHWEST MISSOURI
NATIONAL WEATHER SERVICE KANSAS CITY/PLEASANT HILL MO
400 PM CDT FRI JUL 03 2015

KSZ040-057-103>105-MOZ028-029-037-043-032200-
...KANSAS CITY METROPOLITAN AREA...

CITY           SKY/WX    TMP DP  RH WIND       PRES   REMARKS
K.C. INTL      SUNNY     79  56  45 VRB5      29.96F
K.C. DOWNTOWN  SUNNY     81  59  47 N10       29.94S
LEES SUMMIT    SUNNY     79  58  48 NE10      29.95F
OLATHE - IXD   SUNNY     80  60  50 N10       29.96S
OLATHE - OJC   SUNNY     80  58  46 NE8       29.94F
LAWRENCE       SUNNY     80  60  50 VRB5      29.95F

$$

MOZ001>008-011>017-020>025-030>033-038>040-044>046-053-054-032200-
...NORTHERN AND CENTRAL MISSOURI...

CITY           SKY/WX    TMP DP  RH WIND       PRES   REMARKS
ST. JOSEPH     SUNNY     80  59  48 VRB6      29.96S
MOSBY          CLEAR     79  52  38 E8        29.95F
HARRISONVILLE  MOSUNNY   82  64  54 NE8       29.96S
WHITEMAN AFB   MOSUNNY   78  62  58 N9        29.93F
CLINTON        MOSUNNY   81  68  65 N12       29.93S
SEDALIA        SUNNY     81  59  47 NE9       29.95F
WARSAW         NOT AVBL
CHILLICOTHE      N/A     80  59  48 N7        29.96F
KIRKSVILLE     SUNNY     78  58  49 VRB3      29.96F

$$

MOZ041-047>049-056>058-063>065-088>090-097-032200-
...EASTERN AND SOUTHERN MISSOURI...

CITY           SKY/WX    TMP DP  RH WIND       PRES   REMARKS
ST. LOUIS INTL MOSUNNY   83  65  54 N6        29.90F
SPIRIT OF STL  PTSUNNY   82  65  56 VRB3      29.89F
COLUMBIA       MOSUNNY   80  60  50 N7        29.93F
JEFFERSON CITY MOSUNNY   81  58  45 VRB5      29.91S
MEXICO         PTSUNNY   81  64  57 NE6       29.94F
ROLLA          SUNNY     79  62  56 NE8       29.91F
LEBANON        SUNNY     77  66  69 MISG      29.93F
OSAGE BEACH    MOSUNNY   79  64  61 N6        29.92S
SPRINGFIELD    MOSUNNY   80  69  69 NE13      29.90F
BRANSON        LGT RAIN  75  73  94 SW12      29.91S FOG
JOPLIN         PTSUNNY   77  69  76 NE13G21   29.90S THUNDER
WEST PLAINS    PTSUNNY   76  69  79 CALM      29.92F

$$

IAZ060-094-KSZ022-034>040-054-083-096-NEZ052-066-093-032200-
...KANSAS...SOUTHEAST NEBRASKA AND IOWA...

CITY           SKY/WX    TMP DP  RH WIND       PRES   REMARKS
TOPEKA         PTSUNNY   80  61  52 NE10      29.95F
MANHATTAN      MOSUNNY   80  64  58 N6        29.96F
EMPORIA        CLOUDY    78  65  63 NE9G17    29.96S
CHANUTE        MOSUNNY   84  68  58 N6        29.91F
WICHITA        PTSUNNY   85  64  49 N13       29.95R
OMAHA          MOSUNNY   76  56  49 CALM      29.98F
LINCOLN        PTSUNNY   79  61  53 N7        29.99F
FALLS CITY     SUNNY     79  56  45 NE6       29.97F
LAMONI         SUNNY     77  58  51 CALM      29.97F
DES MOINES     SUNNY     79  52  38 CALM      29.96F

$$



USA.gov is the U.S. government's official web portal to all federal, state and local government web resources and services.